Weather History for Nassau, Bahamas

Change the Weather History Date:

Thursday, April 3, 2014

  Actual Average Record
Temperature  
Mean Temperature 74 °F -  
Max Temperature 82 °F 82 °F 87 °F (2009)
Min Temperature 67 °F 66 °F 62 °F (2006)
Cooling Degree Days 10    
Growing Degree Days 24 (Base 50)    
Moisture  
Dew Point 63 °F    
Average Humidity 66    
Maximum Humidity 78    
Minimum Humidity 49    
Precipitation  
Precipitation 0.00 in 0.08 in - ()
Sea Level Pressure  
Sea Level Pressure 30.13 in    
Wind  
Wind Speed 6 mph ()    
Max Wind Speed 12 mph    
Max Gust Speed -    
Visibility 6.8 miles    
Events      
Averages and records for this station are not official NWS values.
T = Trace of Precipitation, MM = Missing Value Source: Averaged Metar Reports

Daily Weather History Graph

Daily Weather History Graph

Search for Another Location

Airport:

Trip Planner

Search our weather history database for the weather conditions in past years. The results will help you decide how hot, cold, wet, or windy it might be!

Date:

Astronomy

Apr. 03, 2014 Rise Set
Actual Time 6:59 AM EDT 7:27 PM EDT
Civil Twilight 6:36 AM EDT 7:50 PM EDT
Nautical Twilight 6:09 AM EDT 8:17 PM EDT
Astronomical Twilight 5:42 AM EDT 8:44 PM EDT
Moon 9:46 AM EDT (4/3) 11:23 PM EDT (4/3)
Length of Visible Light 13h 13m
Length of Day
12h 27m
Waxing Crescent, 17% of the Moon is Illuminated
Apr 3
Waxing Crescent
Apr 7
First Quarter
Apr 15
Full
Apr 22
Last Quarter
Apr 29
New

Hourly Weather History & Observations

Time (EDT) Temp. Heat Index Dew Point Humidity Pressure Visibility Wind Dir Wind Speed Gust Speed Precip Events Conditions
12:00 AM 71.6 °F - 59.0 °F 64% 30.18 in 6.2 mi East 6.9 mph - N/A   Partly Cloudy
1:00 AM 71.6 °F - 59.0 °F 64% 30.18 in 6.2 mi East 6.9 mph - N/A   Partly Cloudy
2:00 AM 71 °F - 63 °F 68% 30.16 in 8 mi East 4.6 mph - -   Partly Cloudy
2:00 AM 69.8 °F - 62.6 °F 78% 30.16 in 6.2 mi East 4.6 mph - N/A   Partly Cloudy
3:00 AM 71.6 °F - 59.0 °F 64% 30.14 in 6.2 mi East 3.5 mph - N/A   Scattered Clouds
4:00 AM 69.8 °F - 60.8 °F 73% 30.13 in 6.2 mi Calm Calm - N/A   Scattered Clouds
5:00 AM 69 °F - 62 °F 73% 30.12 in 8 mi East 6.9 mph - -   Partly Cloudy
5:00 AM 69.8 °F - 62.6 °F 78% 30.12 in 6.2 mi East 6.9 mph - N/A   Scattered Clouds
7:00 AM 69.8 °F - 60.8 °F 73% 30.15 in 6.2 mi Calm Calm - N/A   Partly Cloudy
8:00 AM 70 °F - 62 °F 69% 30.16 in 9 mi East 3.5 mph - -   Partly Cloudy
8:00 AM 69.8 °F - 62.6 °F 78% 30.16 in 6.2 mi East 3.5 mph - N/A   Scattered Clouds
9:00 AM 73.4 °F - 60.8 °F 65% 30.17 in 6.2 mi East 6.9 mph - N/A   Scattered Clouds
10:00 AM 75.2 °F - 60.8 °F 61% 30.18 in 6.2 mi East 9.2 mph - N/A   Scattered Clouds
11:00 AM 78.8 °F - 66.2 °F 65% 30.17 in 6.2 mi East 9.2 mph - N/A   Scattered Clouds
12:00 PM 77.0 °F - 60.8 °F 57% 30.17 in 6.2 mi ESE 11.5 mph - N/A   Scattered Clouds
1:00 PM 77.0 °F - 60.8 °F 57% 30.16 in 6.2 mi ESE 11.5 mph - N/A   Scattered Clouds
2:00 PM 80 °F - 64 °F 49% 30.14 in 9 mi East 6.9 mph - -   Partly Cloudy
2:00 PM 80.6 °F 82.3 °F 64.4 °F 58% 30.14 in 6.2 mi East 6.9 mph - N/A   Scattered Clouds
3:00 PM 78.8 °F - 62.6 °F 57% 30.11 in 6.2 mi East 9.2 mph - N/A   Scattered Clouds
4:00 PM 78.8 °F - 62.6 °F 57% 30.10 in 6.2 mi East 11.5 mph - N/A   Scattered Clouds
5:00 PM 78 °F - 65 °F 57% 30.09 in 9 mi East 11.5 mph - -   Partly Cloudy
5:00 PM 78.8 °F - 66.2 °F 65% 30.09 in 6.2 mi East 11.5 mph - N/A   Scattered Clouds
6:00 PM 77.0 °F - 62.6 °F 61% 30.09 in 6.2 mi East 11.5 mph - N/A   Scattered Clouds
7:00 PM 75.2 °F - 62.6 °F 65% 30.10 in 6.2 mi East 6.9 mph - N/A   Scattered Clouds
8:00 PM 75 °F - 67 °F 69% 30.10 in 9 mi East 9.2 mph - -   Partly Cloudy
8:00 PM 75.2 °F - 66.2 °F 73% 30.10 in 6.2 mi East 9.2 mph - N/A   Scattered Clouds
9:00 PM 73.4 °F - 66.2 °F 78% 30.10 in 6.2 mi East 9.2 mph - N/A   Partly Cloudy
10:00 PM 73.4 °F - 62.6 °F 69% 30.11 in 6.2 mi East 10.4 mph - N/A   Scattered Clouds
11:00 PM 74 °F - 65 °F 66% 30.12 in 9 mi East 3.5 mph - -   Partly Cloudy